Soldotna, AK

2:16 AM AKST on February 22, 2017 (GMT -0900)
Soldotna

Weather History for PASX - September, 2013

Change the Weather History Date:

Wednesday, September 4, 2013

  Actual Average Record
Temperature  
Mean Temperature 50 °F -  
Max Temperature 57 °F 57 °F 70 °F (1963)
Min Temperature 44 °F 42 °F 28 °F (1982)
Degree Days  
Heating Degree Days 14    
Moisture  
Dew Point 45 °F    
Average Humidity 78    
Maximum Humidity 93    
Minimum Humidity 55    
Precipitation  
Precipitation 0.02 in - - ()
Sea Level Pressure  
Sea Level Pressure 29.55 in    
Wind  
Wind Speed 3 mph (South)    
Max Wind Speed 16 mph    
Max Gust Speed 24 mph    
Visibility 10 miles    
Events      
Averages and records for this station are not official NWS values.
T = Trace of Precipitation, MM = Missing Value Source: NWS Daily Summary

Daily Weather History Graph

Daily Weather History Graph

Search for Another Location

Airport or City:

Trip Planner

Search our weather history database for the weather conditions in past years. The results will help you decide how hot, cold, wet, or windy it might be!

Date:

Astronomy

Sep. 04, 2013 Rise Set
Actual Time 7:06 AM AKDT 8:58 PM AKDT
Civil Twilight 6:21 AM AKDT 9:42 PM AKDT
Nautical Twilight 5:23 AM AKDT 10:39 PM AKDT
Astronomical Twilight 4:10 AM AKDT 11:51 PM AKDT
Moon 6:32 AM AKDT (9/4) 8:10 PM AKDT (9/4)
Length of Visible Light 15h 21m
Length of Day
13h 51m
Waning Crescent, 0% of the Moon is Illuminated
Sep 4
Waning Crescent
Sep 5
New
Sep 12
First Quarter
Sep 19
Full
Sep 26
Last Quarter

Hourly Weather History & Observations

Time (AKDT) Temp. Windchill Dew Point Humidity Pressure Visibility Wind Dir Wind Speed Gust Speed Precip Events Conditions
12:16 AM 50.0 °F - 46.4 °F 87% 29.40 in 10.0 mi Calm Calm - N/A   Mostly Cloudy
12:36 AM 48.2 °F - 46.4 °F 93% 29.40 in 10.0 mi NE 3.5 mph - N/A   Mostly Cloudy
12:56 AM 48.2 °F - 44.6 °F 87% 29.40 in 10.0 mi Calm Calm - N/A   Mostly Cloudy
1:16 AM 48.2 °F - 46.4 °F 93% 29.40 in 10.0 mi Calm Calm - N/A   Overcast
1:36 AM 48.2 °F - 46.4 °F 93% 29.40 in 10.0 mi Calm Calm - N/A   Overcast
1:56 AM 48.2 °F - 46.4 °F 93% 29.40 in 9.0 mi Calm Calm - N/A   Overcast
2:16 AM 48.2 °F - 46.4 °F 93% 29.40 in 8.0 mi Calm Calm - N/A   Overcast
2:36 AM 48.2 °F - 46.4 °F 93% 29.40 in 5.0 mi Calm Calm - N/A   Overcast
2:56 AM 48.2 °F - 46.4 °F 93% 29.40 in 5.0 mi Calm Calm - 0.01 in   Overcast
3:16 AM 48.2 °F - 46.4 °F 93% 29.39 in 7.0 mi Calm Calm - 0.01 in   Overcast
3:36 AM 48.2 °F - 46.4 °F 93% 29.40 in 10.0 mi Calm Calm - 0.01 in   Overcast
3:56 AM 48.2 °F - 46.4 °F 93% 29.40 in 10.0 mi Calm Calm - 0.01 in   Overcast
4:16 AM 48.2 °F - 46.4 °F 93% 29.41 in 6.0 mi Calm Calm - N/A   Overcast
4:36 AM 48.2 °F - 46.4 °F 93% 29.41 in 9.0 mi Calm Calm - N/A   Overcast
4:56 AM 48.2 °F - 46.4 °F 93% 29.41 in 8.0 mi Calm Calm - N/A   Overcast
5:16 AM 48.2 °F - 46.4 °F 93% 29.41 in 7.0 mi East 4.6 mph - N/A   Overcast
5:36 AM 48.2 °F - 46.4 °F 93% 29.41 in 9.0 mi Calm Calm - N/A   Overcast
5:56 AM 48.2 °F - 46.4 °F 93% 29.42 in 9.0 mi Calm Calm - N/A   Overcast
6:16 AM 48.2 °F - 46.4 °F 93% 29.42 in 10.0 mi Calm Calm - N/A   Overcast
6:36 AM 48.2 °F - 46.4 °F 93% 29.42 in 10.0 mi Calm Calm - N/A   Overcast
6:56 AM 48.2 °F - 46.4 °F 93% 29.43 in 10.0 mi Calm Calm - N/A   Overcast
7:16 AM 48.2 °F - 46.4 °F 93% 29.44 in 8.0 mi ESE 3.5 mph - N/A   Overcast
7:36 AM 48.2 °F - 46.4 °F 93% 29.45 in 10.0 mi Calm Calm - N/A   Overcast
7:56 AM 48.2 °F - 46.4 °F 93% 29.45 in 10.0 mi East 3.5 mph - N/A   Overcast
8:16 AM 48.2 °F - 46.4 °F 93% 29.46 in 10.0 mi Calm Calm - N/A   Overcast
8:36 AM 48.2 °F - 46.4 °F 93% 29.46 in 10.0 mi ENE 3.5 mph - N/A   Overcast
8:56 AM 48.2 °F - 46.4 °F 93% 29.47 in 10.0 mi ESE 3.5 mph - N/A   Overcast
9:16 AM 48.2 °F - 46.4 °F 93% 29.48 in 10.0 mi East 3.5 mph - N/A   Overcast
9:36 AM 51.8 °F - 46.4 °F 82% 29.49 in 10.0 mi East 6.9 mph - N/A   Overcast
9:56 AM 53.6 °F - 48.2 °F 82% 29.49 in 10.0 mi East 4.6 mph - N/A   Overcast
10:16 AM 53.6 °F - 48.2 °F 82% 29.49 in 10.0 mi East 5.8 mph - N/A   Mostly Cloudy
10:36 AM 55.4 °F - 48.2 °F 77% 29.50 in 10.0 mi Calm Calm - N/A   Scattered Clouds
10:56 AM 55.4 °F - 46.4 °F 72% 29.51 in 10.0 mi SSW 5.8 mph - N/A   Mostly Cloudy
11:16 AM 55.4 °F - 46.4 °F 72% 29.52 in 10.0 mi SSW 6.9 mph - N/A   Overcast
11:36 AM 55.4 °F - 46.4 °F 72% 29.53 in 10.0 mi SW 8.1 mph - N/A   Overcast
11:56 AM 55.4 °F - 46.4 °F 72% 29.54 in 10.0 mi SSW 8.1 mph - N/A   Overcast
12:16 PM 55.4 °F - 44.6 °F 67% 29.55 in 10.0 mi SSW 8.1 mph 18.4 mph N/A   Overcast
12:36 PM 55.4 °F - 46.4 °F 72% 29.55 in 10.0 mi SSW 10.4 mph 16.1 mph N/A   Overcast
12:56 PM 57.2 °F - 46.4 °F 67% 29.56 in 10.0 mi SW 13.8 mph 19.6 mph N/A   Overcast
1:16 PM 57.2 °F - 46.4 °F 67% 29.57 in 10.0 mi SW 12.7 mph 24.2 mph N/A   Overcast
1:36 PM 57.2 °F - 46.4 °F 67% 29.58 in 10.0 mi WSW 16.1 mph 23.0 mph N/A   Overcast
1:56 PM 55.4 °F - 46.4 °F 72% 29.59 in 10.0 mi SW 13.8 mph 19.6 mph N/A   Overcast
2:16 PM 55.4 °F - 46.4 °F 72% 29.59 in 10.0 mi SSW 8.1 mph - N/A   Mostly Cloudy
2:36 PM 57.2 °F - 46.4 °F 67% 29.60 in 10.0 mi SW 9.2 mph 16.1 mph N/A   Overcast
2:56 PM 55.4 °F - 46.4 °F 72% 29.60 in 10.0 mi SW 9.2 mph - N/A   Mostly Cloudy
3:16 PM 55.4 °F - 46.4 °F 72% 29.62 in 10.0 mi SW 8.1 mph - N/A   Overcast
3:36 PM 55.4 °F - 46.4 °F 72% 29.62 in 10.0 mi SW 6.9 mph - N/A   Overcast
3:56 PM 55.4 °F - 44.6 °F 67% 29.63 in 10.0 mi SSW 10.4 mph 18.4 mph N/A   Overcast
4:16 PM 55.4 °F - 44.6 °F 67% 29.63 in 10.0 mi South 8.1 mph - N/A   Overcast
4:36 PM 57.2 °F - 44.6 °F 63% 29.64 in 10.0 mi SSW 11.5 mph 16.1 mph N/A   Overcast
4:56 PM 57.2 °F - 42.8 °F 59% 29.64 in 10.0 mi SW 11.5 mph 21.9 mph N/A   Mostly Cloudy
5:16 PM 55.4 °F - 44.6 °F 67% 29.64 in 10.0 mi SSW 8.1 mph - N/A   Mostly Cloudy
5:36 PM 55.4 °F - 42.8 °F 63% 29.65 in 10.0 mi SW 10.4 mph - N/A   Scattered Clouds
5:56 PM 57.2 °F - 42.8 °F 59% 29.65 in 10.0 mi SW 9.2 mph - N/A   Partly Cloudy
6:16 PM 57.2 °F - 42.8 °F 59% 29.66 in 10.0 mi WSW 13.8 mph 19.6 mph N/A   Partly Cloudy
6:36 PM 57.2 °F - 42.8 °F 59% 29.66 in 10.0 mi SW 15.0 mph 19.6 mph N/A   Clear
6:56 PM 57.2 °F - 42.8 °F 59% 29.68 in 10.0 mi SW 11.5 mph 16.1 mph N/A   Clear
7:16 PM 57.2 °F - 41.0 °F 55% 29.68 in 10.0 mi SW 9.2 mph - N/A   Clear
7:36 PM 57.2 °F - 42.8 °F 59% 29.69 in 10.0 mi SW 5.8 mph - N/A   Clear
7:56 PM 55.4 °F - 42.8 °F 63% 29.70 in 10.0 mi SSW 9.2 mph - N/A   Clear
8:16 PM 55.4 °F - 42.8 °F 63% 29.70 in 10.0 mi South 4.6 mph - N/A   Clear
8:36 PM 53.6 °F - 42.8 °F 67% 29.71 in 10.0 mi South 4.6 mph - N/A   Clear
8:56 PM 53.6 °F - 42.8 °F 67% 29.72 in 10.0 mi South 3.5 mph - N/A   Clear
9:16 PM 51.8 °F - 42.8 °F 71% 29.73 in 10.0 mi SE 4.6 mph - N/A   Clear
9:36 PM 51.8 °F - 42.8 °F 71% 29.74 in 10.0 mi Calm Calm - N/A   Clear
9:56 PM 48.2 °F - 42.8 °F 82% 29.75 in 10.0 mi SSE 3.5 mph - N/A   Clear
10:16 PM 50.0 °F - 42.8 °F 76% 29.76 in 10.0 mi South 4.6 mph - N/A   Clear
10:36 PM 50.0 °F - 41.0 °F 71% 29.77 in 10.0 mi SE 3.5 mph - N/A   Clear
10:56 PM 48.2 °F - 41.0 °F 76% 29.78 in 10.0 mi Calm Calm - N/A   Clear
11:16 PM 44.6 °F 41.4 °F 39.2 °F 81% 29.79 in 10.0 mi East 5.8 mph - N/A   Clear
11:36 PM 46.4 °F 44.3 °F 39.2 °F 76% 29.79 in 10.0 mi ESE 4.6 mph - N/A   Clear
11:56 PM 46.4 °F 44.3 °F 39.2 °F 76% 29.80 in 10.0 mi ESE 4.6 mph - N/A   Clear